Theta_e
325 324 323 322 321 322 321 321 321 321 321 321 321 320 320 319 319 319 319 318 318 317 318 320 322 322 315 303 303 321 352 348 342 319 315 321 321 323 320 322 325 324 326 326 328 328 328
325 323 323 321 321 321 321 321 321 320 320 320 320 320 320 319 319 318 318 317 316 316 318 321 322 323 309 294 312 331 333 325 316 316 316 320 322 327 320 324 324 325 327 325 327 326 325
325 323 322 322 322 321 321 320 320 320 320 319 319 319 319 319 319 318 316 315 315 316 319 321 322 323 312 301 321 324 318 312 312 316 319 323 329 322 323 325 329 325 319 323 324 323 322
325 323 322 322 322 321 320 320 320 320 320 319 319 319 319 319 318 318 316 314 315 318 320 321 323 316 307 319 317 316 314 311 313 314 318 327 332 327 323 328 323 319 320 310 320 322 323
324 323 322 322 321 320 320 320 320 319 319 319 319 319 318 318 318 316 314 314 317 322 322 323 311 311 309 326 319 317 314 311 310 311 313 336 329 322 323 315 309 313 306 309 314 323 324
324 323 322 321 321 320 319 319 319 319 318 318 318 318 318 318 317 315 313 314 322 322 321 321 321 307 312 311 317 315 312 313 310 309 310 310 318 312 312 307 299 305 306 310 312 318 321
323 322 322 320 320 319 319 319 318 318 318 318 318 317 317 316 316 313 308 311 310 306 309 305 307 307 314 317 318 314 314 310 309 306 300 305 302 301 308 312 313 311 311 310 315 321 319
322 322 321 320 319 319 319 318 318 318 318 317 317 316 316 316 315 313 306 302 306 311 300 310 313 312 315 315 311 313 312 306 304 300 301 300 298 305 312 315 313 313 311 310 318 321 319
321 320 320 319 318 318 318 317 317 317 316 316 316 316 315 314 313 306 304 307 309 306 298 304 310 312 312 315 311 308 310 305 301 298 298 296 301 309 307 313 311 310 310 312 312 318 318
320 320 319 318 318 317 317 316 316 316 316 315 315 315 313 312 307 309 308 311 312 308 295 301 304 311 313 311 307 312 309 306 301 299 299 299 304 305 305 306 311 305 315 316 316 310 303
320 319 319 318 318 317 316 316 316 315 315 314 314 313 312 310 303 306 311 312 306 305 290 307 306 316 311 307 305 306 308 305 300 301 300 299 300 300 300 309 314 309 316 315 315 308 306
320 319 319 318 317 317 316 315 315 314 314 314 313 312 311 307 306 309 313 310 306 296 292 304 308 307 304 302 304 305 305 306 305 301 299 300 304 301 300 306 316 314 314 313 310 304 296
320 319 318 318 317 316 315 315 314 314 313 312 311 310 307 313 308 312 310 303 294 290 304 301 300 302 302 301 302 302 301 299 297 292 291 298 299 301 303 297 310 304 301 296 294 294 295
319 318 318 317 316 316 315 315 314 313 313 311 309 307 308 312 310 311 302 298 289 298 298 301 301 300 300 301 300 300 298 297 299 295 291 291 292 299 302 299 296 296 294 290 287 291 295
319 318 318 316 316 315 315 315 314 313 312 310 308 309 306 312 312 309 300 290 291 295 300 299 300 297 296 299 299 298 297 298 300 298 294 289 292 300 302 302 302 296 297 298 294 295 294
319 318 318 317 316 315 315 314 313 313 312 309 304 309 313 315 313 305 297 292 294 299 301 299 294 297 295 298 297 296 297 300 300 301 298 295 291 298 303 304 302 300 303 296 293 289 288
319 318 317 316 316 315 315 314 313 313 310 309 307 307 314 314 308 301 293 293 299 303 303 299 297 297 297 297 299 296 299 302 303 301 299 294 292 296 299 298 297 297 295 294 294 294 290
319 318 317 316 315 315 315 314 313 311 309 306 303 304 317 308 299 293 293 296 302 302 308 305 300 299 297 298 297 298 300 303 307 303 297 297 292 291 294 301 303 302 297 294 290 289 295
319 318 317 316 316 316 315 314 313 311 310 304 301 302 316 307 295 296 300 303 307 307 306 306 303 305 300 297 293 298 301 307 309 305 301 297 291 289 293 295 299 300 300 295 294 294 293
319 319 318 317 316 316 315 314 312 311 310 304 304 298 302 302 299 297 297 299 301 308 307 305 305 304 302 297 297 297 299 306 309 311 323 307 290 292 292 293 296 299 303 302 297 294 293
319 319 317 317 316 316 315 314 313 312 310 306 303 297 300 295 298 297 296 300 301 301 305 304 302 303 300 296 297 299 302 304 308 314 308 299 294 292 295 297 303 302 303 303 299 299 296
318 318 317 316 315 316 315 314 314 312 309 305 301 299 301 298 298 298 297 298 301 303 302 301 301 304 302 298 298 297 299 298 299 305 303 303 297 295 294 300 303 302 304 304 302 303 301
318 317 317 315 315 315 315 314 314 312 307 300 302 303 302 298 298 296 296 300 303 305 305 306 305 303 301 304 306 306 304 303 303 301 300 300 299 297 292 299 299 296 302 303 304 304 304
317 317 316 314 314 314 315 315 314 313 310 300 300 301 298 295 298 299 301 303 303 304 301 305 306 301 306 310 306 302 301 302 302 302 302 298 298 298 295 294 289 299 306 307 305 308 306
317 316 314 314 314 314 314 314 314 314 313 302 301 302 298 293 299 300 301 301 302 302 301 304 306 307 308 303 299 295 295 296 300 303 300 301 300 295 294 293 295 301 305 306 304 302 310
317 315 313 313 313 313 313 313 314 314 313 303 301 303 301 295 294 302 300 300 296 296 298 302 306 306 306 299 297 291 290 293 294 298 299 299 300 299 292 291 289 297 307 310 308 298 310
315 313 313 313 313 313 313 313 313 313 312 306 302 303 302 296 299 299 297 296 300 297 294 297 300 301 304 297 295 293 293 298 293 291 293 298 297 294 294 295 297 305 309 311 297 299 310
314 313 312 312 312 312 312 312 312 312 312 308 301 304 301 296 298 303 304 300 299 297 293 297 296 298 298 295 295 295 295 297 296 297 296 293 294 295 295 290 290 310 310 302 304 307 310
313 313 312 312 312 312 312 312 312 312 312 309 297 303 304 297 298 303 306 308 305 303 298 297 296 296 297 294 295 297 296 298 295 293 300 296 298 297 297 296 305 309 308 312 312 309 311
Wind_Speed
18 17 17 17 15 15 16 16 16 16 16 16 15 14 13 14 13 12 11 10 9 7 7 8 7 6 2 1 9 1 10 14 8 7 6 5 5 5 5 4 3 2 4 6 7 13 4
16 18 16 17 16 17 17 17 17 16 16 16 16 15 14 13 13 12 11 9 8 7 7 7 5 5 1 2 3 6 9 8 5 5 7 5 7 4 6 2 3 2 8 8 4 9 10
15 18 18 16 16 16 17 17 17 17 17 17 16 15 14 13 13 13 12 10 9 7 7 6 4 3 1 11 4 7 8 6 3 6 5 4 6 5 6 4 2 7 7 7 6 6 4
14 18 17 16 16 16 17 18 18 18 17 17 17 16 15 14 14 14 14 12 10 8 5 5 3 1 7 3 4 5 3 2 3 5 1 2 9 7 5 2 2 4 2 1 5 8 6
14 16 16 16 17 17 17 18 18 18 18 18 18 17 16 15 14 13 15 14 7 5 4 6 2 1 9 1 4 7 5 3 2 3 2 8 6 4 2 3 3 4 3 3 1 11 6
17 16 17 17 18 18 17 18 19 19 19 18 18 18 17 15 13 13 17 4 7 10 3 4 4 3 5 5 4 6 4 4 3 2 3 4 5 4 3 3 3 4 3 3 5 7 7
17 17 18 18 18 18 19 19 19 20 20 21 19 19 17 15 11 10 7 4 3 1 3 10 8 4 4 2 3 4 6 6 4 4 3 3 2 8 10 7 3 4 1 2 3 5 3
17 18 18 18 19 19 19 20 20 20 21 22 21 19 18 15 11 11 1 4 6 3 5 12 8 7 3 2 4 4 7 6 6 6 2 4 8 12 7 8 6 4 2 3 1 6 3
17 18 18 18 19 19 20 21 21 21 22 22 21 19 17 14 14 4 3 7 4 3 1 7 6 6 6 10 8 8 13 6 5 4 6 8 14 4 5 6 8 6 7 5 4 7 3
17 18 18 19 19 20 21 21 22 23 24 23 22 20 18 15 2 2 4 4 8 5 5 7 3 6 5 5 3 6 8 8 2 9 6 7 9 6 11 9 9 6 13 6 8 5 1
18 18 19 19 20 21 21 22 23 25 26 26 22 20 13 5 1 4 3 4 5 4 2 2 3 2 5 9 5 5 5 4 8 6 6 10 4 6 6 8 11 13 11 10 6 4 3
18 19 19 20 21 22 22 23 25 27 28 29 25 17 9 3 2 8 6 4 4 7 2 3 5 5 5 1 2 3 5 3 2 5 2 9 3 5 8 4 18 4 10 11 4 3 3
18 19 20 21 21 22 23 25 27 29 31 31 28 18 5 3 3 1 2 4 7 4 5 3 2 4 6 6 4 6 8 9 7 3 4 7 7 5 6 3 5 9 5 4 4 3 7
18 19 20 21 22 23 24 26 28 30 33 33 31 11 9 5 4 5 4 7 2 4 5 4 5 2 9 5 4 2 6 8 6 3 3 5 8 5 4 7 8 8 9 8 8 6 5
18 19 20 21 22 23 25 27 29 31 34 34 22 2 2 5 7 1 7 4 7 6 2 6 7 4 2 2 2 4 7 9 7 10 8 6 8 5 5 6 10 5 4 4 8 4 4
18 19 20 21 23 24 26 28 29 32 35 29 4 5 4 2 6 5 7 5 4 4 3 1 2 2 2 4 5 6 6 6 8 14 6 5 3 5 7 3 3 8 7 2 4 3 3
17 19 20 21 23 24 26 28 30 31 35 25 3 4 6 1 3 7 3 6 6 6 1 3 6 6 9 6 7 7 8 6 8 3 8 4 4 9 2 5 7 3 2 6 6 4 7
16 17 19 20 22 24 26 28 30 29 31 9 4 4 4 3 5 2 1 3 5 4 2 4 2 7 7 7 6 5 7 6 3 4 9 10 7 7 13 7 3 5 6 6 6 4 1
16 16 17 19 21 24 26 28 29 29 25 3 3 3 4 5 3 4 7 6 4 6 6 4 5 6 3 4 3 5 4 5 5 3 6 7 4 4 11 8 5 3 3 5 7 4 6
16 16 17 18 20 22 24 25 28 30 28 3 3 5 6 7 2 4 5 5 7 9 2 6 3 5 5 7 7 4 6 5 8 4 5 5 4 9 11 10 5 4 3 4 6 5 4
15 15 16 17 19 21 23 25 28 32 33 2 5 1 2 4 4 4 2 5 5 9 5 9 6 6 3 5 5 5 3 8 6 8 5 4 4 6 7 6 6 6 11 7 4 6 7
15 13 15 16 17 19 21 24 27 31 30 6 3 4 5 2 4 5 6 4 5 5 3 5 5 8 1 2 3 4 2 2 3 9 7 5 1 1 4 2 5 5 9 8 4 5 2
14 13 13 16 17 18 19 21 22 24 16 4 3 3 3 3 4 3 2 5 6 7 6 3 5 5 3 3 10 13 9 6 7 3 3 4 2 3 4 4 2 2 8 9 6 7 9
13 12 13 14 16 17 17 18 18 18 11 1 2 1 3 4 2 1 6 7 7 6 5 6 5 2 6 12 11 4 5 8 8 8 6 3 2 1 3 3 4 9 3 5 7 9 7
12 10 12 13 15 16 17 17 17 17 16 1 2 2 2 4 2 6 6 4 8 6 4 6 3 5 10 5 3 4 5 4 5 8 8 6 5 2 3 4 5 6 3 8 8 7 2
9 8 10 12 14 15 16 16 16 16 16 2 2 1 2 1 4 1 3 3 3 4 6 5 8 8 4 2 3 3 4 4 4 6 6 4 4 5 4 4 6 5 8 4 4 4 2
7 8 9 11 12 13 14 15 15 16 16 3 2 2 2 1 5 3 3 3 3 2 3 5 8 8 5 3 1 3 4 3 2 2 5 4 3 4 5 5 6 6 5 5 7 8 1
7 8 9 10 11 12 13 14 14 15 16 6 4 2 3 3 7 5 5 5 1 2 2 5 7 3 4 5 2 2 1 2 3 3 4 2 1 5 1 2 6 6 2 5 3 6 3
7 8 9 9 11 12 12 13 13 14 14 10 3 3 1 4 8 4 10 12 8 10 2 3 3 2 4 3 1 1 2 2 1 2 3 3 4 4 6 5 4 2 1 4 5 2 3
Wind_Direction
12 13 10 11 3 358 356 354 353 351 348 347 346 346 348 349 346 340 334 328 317 301 286 281 293 306 305 17 253 300 98 148 138 128 169 174 158 150 160 145 161 155 203 48 78 56 20
12 13 11 6 355 356 353 352 351 349 346 344 342 341 342 340 341 341 334 327 315 296 279 272 276 293 211 249 256 155 126 144 155 148 187 193 190 162 96 95 203 141 109 127 77 55 353
8 13 10 359 354 351 347 346 346 345 343 341 339 338 338 337 337 339 331 322 308 288 269 255 250 266 90 238 360 147 138 178 142 181 171 215 129 96 130 128 129 135 116 122 136 147 179
3 11 6 356 353 349 346 344 343 339 337 335 334 334 333 333 333 331 328 316 298 274 245 226 217 275 246 263 126 140 182 232 233 211 223 309 113 95 96 162 84 147 131 128 164 179 177
2 8 357 356 352 349 344 339 338 334 332 332 330 327 327 330 330 328 327 315 285 224 163 167 124 159 269 28 186 205 173 205 182 124 232 126 71 104 88 130 47 0 172 161 184 202 166
3 359 356 355 351 347 342 338 335 332 330 327 324 322 323 325 325 334 328 244 105 112 143 202 250 339 271 214 187 181 209 142 196 62 125 129 67 87 36 88 256 220 216 215 183 203 190
1 356 356 353 349 344 341 337 333 331 327 324 322 321 321 320 321 334 351 103 48 6 238 195 190 234 305 226 114 200 158 111 311 73 192 129 130 219 208 193 232 130 175 272 226 176 172
359 355 352 349 347 341 338 334 331 328 324 321 320 320 317 315 314 314 199 191 211 187 301 230 235 267 249 23 355 229 111 148 155 211 103 9 254 246 169 193 184 169 171 220 350 156 150
356 352 348 346 343 339 336 332 330 327 323 321 320 319 314 312 317 139 201 226 259 64 46 292 193 196 214 146 213 234 151 156 167 178 192 191 244 2 164 182 198 193 189 194 199 137 18
352 349 346 344 342 338 337 333 330 326 323 322 322 319 314 318 131 165 239 239 246 157 60 276 257 257 158 135 243 190 186 141 189 203 178 225 282 255 274 234 163 234 206 180 128 85 215
351 348 346 344 342 339 337 334 332 329 325 323 324 319 310 300 268 179 163 308 119 63 61 151 206 80 152 150 161 232 191 72 195 197 114 240 268 296 262 228 165 235 164 161 123 111 128
349 348 346 345 342 340 337 336 335 332 327 324 326 319 309 115 200 238 313 326 69 44 280 326 139 162 116 190 258 97 158 65 149 191 199 251 224 206 222 242 194 85 99 72 53 78 350
349 347 346 344 342 341 339 339 338 334 330 327 327 321 213 178 215 327 241 64 46 125 313 348 264 163 167 181 225 151 165 199 197 128 281 310 257 246 188 153 33 89 130 49 16 342 223
348 348 347 345 343 342 342 342 340 337 333 331 328 329 195 224 281 354 57 53 132 245 256 334 303 192 182 153 234 246 132 207 243 115 117 205 310 188 166 169 190 175 172 155 189 200 245
348 348 346 345 344 345 345 345 343 340 335 337 325 340 151 257 199 5 75 80 209 211 284 339 336 94 280 171 220 134 193 224 209 166 188 165 270 288 228 195 142 208 193 193 106 30 90
347 348 347 345 346 347 347 347 346 344 337 340 349 341 310 106 154 63 76 226 238 222 7 356 264 344 352 262 142 162 189 225 232 192 154 232 292 237 279 63 280 160 167 81 4 149 202
346 347 346 346 347 349 349 347 347 347 339 334 19 44 321 296 65 48 145 232 253 263 227 226 209 234 225 226 186 186 205 266 234 216 172 142 128 266 42 211 200 92 161 54 120 126 166
344 344 344 348 349 348 350 347 347 351 344 32 354 58 307 18 49 31 128 221 282 282 304 281 223 210 210 174 199 213 215 218 172 146 178 212 159 234 229 276 306 175 167 136 129 218 143
339 340 346 350 350 350 351 349 347 349 359 325 45 273 318 73 69 343 314 304 318 337 309 340 320 16 305 233 235 207 210 252 299 228 211 172 220 244 296 348 347 194 150 113 113 84 188
334 341 349 351 352 351 351 350 347 348 354 92 38 11 337 34 45 66 356 320 330 327 337 355 34 45 7 19 356 31 338 306 330 9 355 113 148 167 211 210 170 142 147 141 113 116 172
335 341 350 353 355 353 353 354 353 350 348 105 27 7 174 340 349 350 282 352 351 359 344 18 11 31 27 12 10 15 344 312 324 345 17 111 200 191 235 215 170 165 168 192 156 169 147
337 349 352 356 356 355 357 359 358 354 344 70 57 27 354 305 313 339 358 21 338 341 280 352 3 314 48 149 159 282 279 306 278 322 2 349 293 47 297 275 211 195 182 174 128 140 116
342 346 355 358 359 360 0 1 2 2 2 49 332 345 91 295 351 29 38 333 314 346 287 40 311 312 315 25 305 272 213 227 224 266 295 1 100 64 255 331 161 336 215 180 173 169 152
341 348 358 357 360 1 1 2 1 3 22 143 282 55 45 291 352 341 322 314 303 306 268 303 331 22 273 310 296 265 241 239 217 235 195 168 95 132 201 26 238 243 260 187 185 183 189
343 355 353 358 360 360 360 2 0 358 0 56 304 56 70 288 234 295 318 294 306 302 268 277 258 260 298 302 14 358 326 305 250 235 199 179 133 105 186 182 279 315 240 163 169 244 181
341 352 357 357 357 355 356 359 360 358 357 26 315 255 87 41 256 3 293 296 301 312 329 284 313 299 354 72 82 195 227 271 299 318 50 86 57 139 165 162 204 222 297 287 109 264 240
346 352 357 355 350 350 352 356 359 360 356 354 283 342 101 263 270 143 224 235 291 24 265 298 328 325 17 25 72 194 248 248 263 293 322 347 316 213 215 216 234 195 292 318 129 230 15
341 348 350 346 344 345 347 350 354 357 358 8 279 332 89 258 273 234 202 192 178 125 185 302 345 347 352 42 35 295 271 310 1 353 330 227 224 213 279 204 278 13 267 173 216 305 321
336 340 338 335 335 339 344 346 349 349 353 8 318 309 144 193 247 233 239 245 205 230 123 274 230 253 242 55 344 307 320 18 165 311 354 318 214 257 189 234 277 309 356 285 220 160 321